Location: Arrodets-la-Barthe
(43.0306°N, 0.2829°E)
Time: 06:46:18
(UTC+00:00)

CUBEBUG 2 - Pass Details

Date: 10 April 2023
Orbit: 577 x 685 km, 97.8° (Epoch: 03 June)

Event Time Altitude Azimuth Distance (km) Brightness Sun altitude
Rises 03:18:26 0° 3° (N) 3,035 ? -22.2°
Reaches altitude 10° 03:20:53 10° 353° (N) 2,103 ? -21.8°
Enters shadow 03:24:42 31° 298° (WNW) 1,146 ? -21.2°
